Preview of NWS' New Version of Forecast
This preview is not operational and should not be used for support decisions.

Regional Weather Roundup (RWR)

Issued by National Weather Service (NWS)

                            
000
ASUS42 KTBW 231216
RWRFL 
FLORIDA REGIONAL WEATHER ROUNDUP
NATIONAL WEATHER SERVICE TAMPA BAY RUSKIN FL
800 AM EDT TUE APR 23 2019

NOTE: "FAIR" INDICATES FEW OR NO CLOUDS BELOW 12,000 FEET WITH NO
SIGNIFICANT WEATHER AND/OR OBSTRUCTIONS TO VISIBILITY.

FLZ001>010-012>015-112-114-115-231300-
PANHANDLE FLORIDA
  
CITY           SKY/WX    TMP DP  RH WIND       PRES   REMARKS
PENSACOLA      FAIR      56  56 100 N6        30.15R                  
PENSACOLA NAS  FAIR      56  56 100 N3        30.14R                  
MILTON NAS     FAIR      48  48 100 CALM      30.15R                  
CRESTVIEW      FAIR      47  45  93 CALM      30.16R                  
DUKE FIELD     FAIR      49  47  96 CALM      30.14                   
VALPARAISO     FAIR      55  49  82 N6        30.14R                  
MARY ESTHER    FAIR      53  50  90 CALM      30.13R                  
PANAMA CITY    FAIR      53  50  89 W3        30.14R                  
TYNDALL AFB    FAIR      59  53  82 CALM      30.14R                  
APALACHICOLA   FAIR      56  52  86 NE5       30.13R                  

STATION/POSITION SKY/WX   TEMP    WIND        PRES    WAVE   SWELL
                          AIR SEA DIR/SP/G            HT/PER HT/PER
                          (F)     (DEG/KT/KT) (MB)    (FT/S) (FT/S)
30.1N   87.6W                                 1020.8R   0
29.2N   88.2W                      80/  4/  6 1020.8R   1/ 4
PANAMA CITY BEAC           59 68   30/  7/  8 1020.8R
TOWER C          NOT AVBL

$$
FLZ011-016>038-118-127-128-134-139-239-231300-
NORTH FLORIDA
  
CITY           SKY/WX    TMP DP  RH WIND       PRES   REMARKS
MARIANNA       FAIR      55  52  89 CALM      30.13R                  
TALLAHASSEE    FAIR      51  48  89 CALM      30.13R                  
PERRY          FAIR      53  52  97 CALM      30.15R                  
LIVE OAK       SUNNY     52  52 100 CALM      30.14R                  
CROSS CITY     FAIR      52  50  92 CALM      30.15R                  
LAKE CITY      FAIR      52  50  93 CALM      30.14S                  
GAINESVILLE    FAIR      56  51  84 CALM      30.17R                  
PALATKA        FAIR     N/A N/A N/A CALM      30.15R                  
MAYPORT NAS    FAIR      61  58  90 SW5       30.14R                  
JACKSONVILLE   FAIR      58  54  86 CALM      30.14R                  
JAX NAS        FAIR      64  53  67 CALM      30.15R                  
JAX CECIL      SUNNY     52  50  93 CALM      30.14R                  
FERNANDINA BEA FAIR      59  57  91 CALM      30.14R                  
ST AUGUSTINE   FAIR      61  56  83 CALM      30.15                   
PALM COAST     SUNNY     57  55  94 CALM      30.14R                  

STATION/POSITION SKY/WX   TEMP    WIND        PRES    WAVE   SWELL
                          AIR SEA DIR/SP/G            HT/PER HT/PER
                          (F)     (DEG/KT/KT) (MB)    (FT/S) (FT/S)
SHELL POINT      NOT AVBL
KEATON BEACH               59      70/  2/  2 1020.8R
CEDAR KEY                  63      20/  4/  5 1020.3R
FERNANDINA                 64 70  170/  1/  2 1021.2R
30.7N   81.3W                 68                N/A     2/ 8
MAYPORT                    64 70  230/  3/  4 1020.6R
31.4N   80.9W              68 67  170/  2/  4 1020.4R   3/ 8   2/ 8
ST AUGUSTINE               66 72  260/  6/  7 1020.7R

$$
FLZ040-043>046-052-053-057-058-063-144-231300-
INTERIOR CENTRAL FLORIDA
  
CITY           SKY/WX    TMP DP  RH WIND       PRES   REMARKS
OCALA          FAIR      54  50  86 CALM      30.16R                  
LEESBURG       FAIR      61  57  87 CALM      30.15R                  
SANFORD        FAIR      61  59  93 CALM      30.14R                  
ORLANDO EXEC   FAIR      64  56  75 CALM      30.14R                  
ORLANDO INTL   FAIR      63  57  81 N5        30.15R                  
KISSIMMEE      FAIR      64  58  80 CALM      30.15                   
WINTER HAVEN   FAIR      63  57  81 CALM      30.15R                  
LAKELAND       SUNNY     57  54  88 CALM      30.15R                  
BARTOW         SUNNY     57  54  88 CALM      30.14R                  
SEBRING        FAIR      60  58  96 N3        30.14R                  
OKEECHOBEE       N/A     55  55 100 CALM      30.12R                  

$$
FLZ041-047-054-059-064-141-147-231300-
EAST CENTRAL FLORIDA
  
CITY           SKY/WX    TMP DP  RH WIND       PRES   REMARKS
ORMOND BEACH   SUNNY     57  57 100 CALM      30.15R                  
DAYTONA BEACH  FAIR      62  58  86 NW3       30.14R                  
DELAND         FAIR      59  55  88 CALM      30.14R                  
NEW SMYRNA BEA SUNNY     63  57  82 CALM      30.15R                  
JFK SPACE CTR  FAIR      64  61  93 N5        30.12R                  
TITUSVILLE     SUNNY    N/A N/A N/A NW5       30.14R                  
CAPE CANAVERAL FAIR      67  61  83 NW7       30.12R                  
PATRICK AFB    FAIR      70  67  90 NW7       30.12R                  
MELBOURNE      FAIR      64  60  87 NW5       30.13R                  
VERO BEACH     FAIR      62  59  90 CALM      30.12R                  
FT PIERCE      FAIR      62  59  90 CALM      30.12R                  

STATION/POSITION SKY/WX   TEMP    WIND        PRES    WAVE   SWELL
                          AIR SEA DIR/SP/G            HT/PER HT/PER
                          (F)     (DEG/KT/KT) (MB)    (FT/S) (FT/S)
28.5N   80.2W              74      60/  6/ 10 1020.3R   4/ 8   3/ 8
28.9N   78.5W              72 78   20/  8/ 12 1020.5R   4/ 9   3/ 9
TRIDENT PIER               67 76  330/  4/  6 1021.4R
28.4N   80.5W                 75                N/A     2/ 8
27.5N   80.2W                 74                N/A     3/ 9

$$
FLZ050-056-061-142-242-148-248-149-249-151-251-155-255-
160-260-231300-
WEST CENTRAL FLORIDA
  
CITY           SKY/WX    TMP DP  RH WIND       PRES   REMARKS
CRYSTAL RIVER  FAIR      52  50  93 CALM      30.16R                  
INVERNESS      FAIR      55  55 100 CALM      30.16R                  
BROOKSVILLE    FAIR      55  53  93 CALM      30.16R                  
CLEARWATER AIR FAIR      61  55  82 CALM      30.14R                  
ST PETE CLEARW FAIR      63  60  90 CALM      30.14R                  
TAMPA INTL     FAIR      65  54  67 CALM      30.15R                  
TAMPA EXEC     FAIR      55  55 100 CALM      30.15R                  
PLANT CITY     FAIR      59  57  94 CALM      30.16R                  
MACDILL AFB    FAIR      61  58  89 E3        30.13R                  
PETER O KNIGHT CLOUDY    64  61  88 CALM      30.15R                  
ST PETERSBURG  FAIR      68  61  78 SE6       30.12R                  
SARASOTA       FAIR      63  57  81 E3        30.12R                  
VENICE         FAIR      64  59  82 E7        30.13S                  

STATION/POSITION SKY/WX   TEMP    WIND        PRES    WAVE   SWELL
                          AIR SEA DIR/SP/G            HT/PER HT/PER
                          (F)     (DEG/KT/KT) (MB)    (FT/S) (FT/S)
27.3N   84.2W                 74                N/A     2/ 3
CLEARWATER BEACH           68 72   20/  2/  2 1020.6R
MIDDLE TAMPA BAY           67     110/  5/  6 1020.4R
VENICE                     62 75   70/  6/  7 1019.6R

$$
FLZ066-069-070-075>078-162-262-165-265-231300-
SOUTHWEST FLORIDA AND KEYS
  
CITY           SKY/WX    TMP DP  RH WIND       PRES   REMARKS
PUNTA GORDA    FAIR      60  57  89 NE3       30.15R                  
FT MYERS       FAIR      64  61  90 NE3       30.12R                  
SOUTHWEST INTL FAIR      64  59  83 NE3       30.13R                  
NAPLES         FAIR      65  62  90 NE5       30.12R                  
MARCO ISLAND   FAIR      64  59  83 NE5       30.13                   
IMMOKALEE      FAIR      59  57  94 CALM      30.11R                  
MARATHON       FAIR      77  56  48 E7        30.09R                  
KEY WEST NAS   FAIR      74  62  66 NE5       30.10R                  
KEY WEST INTL  FAIR      74  62  66 NE6       30.10R                  

STATION/POSITION SKY/WX   TEMP    WIND        PRES    WAVE   SWELL
                          AIR SEA DIR/SP/G            HT/PER HT/PER
                          (F)     (DEG/KT/KT) (MB)    (FT/S) (FT/S)
NAPLES                     67 75   70/  4/  6 1019.8R
DRY TORTUGAS               76      70/ 14/ 16 1019.0R
SAND KEY                   74                 1018.9R
SOMBRERO KEY               75                 1018.2R

$$
FLZ067-068-071>074-168-172>174-231300-
SOUTHEAST FLORIDA 
  
CITY           SKY/WX    TMP DP  RH WIND       PRES   REMARKS
W PALM BEACH   FAIR      68  65  90 NW5       30.11R                  
BOCA RATON     MOSUNNY   70  61  73 NW3       30.10R                  
FT LAUDER-EXEC FAIR      73  59  61 VRB3      30.09R                  
FT LAUDERDALE  PTSUNNY   75  57  53 NE9       30.09R                  
POMPANO BEACH  PTSUNNY   75  57  53 E6        30.10R                  
PEMBROKE PINES   N/A     72  59  63 MISG      30.11R                  
OPA LOCKA      PTSUNNY   72  60  66 CALM      30.10R                  
MIAMI          PTSUNNY   72  58  61 CALM      30.10R                  
WEST KENDALL   FAIR      68  61  78 CALM      30.10R                  
HOMESTEAD      FAIR      72  58  60 NE8       30.09R                  

STATION/POSITION SKY/WX   TEMP    WIND        PRES    WAVE   SWELL
                          AIR SEA DIR/SP/G            HT/PER HT/PER
                          (F)     (DEG/KT/KT) (MB)    (FT/S) (FT/S)
PORT EVERGLADES            75      70/  9/ 13 1019.0R
VIRGINIA KEY               75 78   60/  9/ 11 1018.3R
LAKE WORTH                 74 77   40/ 10/ 12 1020.3R
SETTLEMENT POINT           73      40/ 12/ 13 1019.6R

$$